LQSAT

导读 | 豆包AI

LQSAT是中国于2015年10月7日08时发射的人造卫星,作为中国航天发展进程中的重要组成部分,承载着相关航天技术试验或应用探索使命。该卫星在进入预定轨道后,开展既定空间任务,为中国积累空间运行经验、推动航天技术创新应用提供了支撑,助力中国航天领域持续探索与发展,彰显中国自主航天探索的稳步推进。

Basic Information
目录编号:
40958
目录名称:
LQSAT
国际标识:
2015-057A
轨道中心:
EARTH
卫星名称:
LQSAT
卫星全名:
--
卫星状态:
在轨 (已飞行3858 天)
发射日期:
2015-10-07 UTC
国别 :
中国 (CN)
星等 :
--
Orbit Information
数据来源 国际轨道数据 AOE轨道数据
星历时间 2026-04-30T13:35:35+0800
10小时前
查看轨道信息
2026-04-30T07:00:00+0800
16小时前
查看轨道信息
半长轴 7017.827km 7017.794km
偏心率 0.001859 0.0018294
轨道倾角 97.667° 97.669°
近地点辐角 69.414° 70.590°
升交点赤经 115.988° 115.729°
平近点角 290.906° 270.191°
近地点 626.643km 626.818km
远地点 652.737km 652.496km
周期 97.513分钟 97.513分钟
每日圈数 14.767222 14.767327
Detailed Information
使用方式:
暂无
2D Orbit Map
3D Orbit Map
Orbit Altitude Analysis Chart
Orbit Inclination Analysis Chart
Orbit Comprehensive Analysis Chart
View Comprehensive Chart